BEIDOU 12 (C11)

Last updated on Mon Feb 13 2023 00:03:21 GMT+0000 (Coordinated Universal Time)

1 38250U 12018A 23042.88240759 -.00000075 00000+0 00000+0 0 9995 2 38250 56.6106 345.6437 0023769 262.2906 274.7699 1.86231363 73546
UTC large
Height (km)
Speed (km/s)
/
Latitude / Longitude
Inclination (degrees)
Orbital Period (minutes)
Azimuth
Elevation
Range (km)
Doppler Factor

Next 0 passes for location: London (51.5072 / 0.1276)

Sorry there are no passes over London.